CW8733 Weather Reports


Display with metric or nautical units.
time (UTC)temp
F
wind
direction
speed
MPH
gust
MPH
rain 1hr
in
rain 24hr
in
rain mn
in
humidity
%
barometer
mb
20260506134035 52 0.0 2.0 0.00 0.00 0.00 83 1016.3
20260506133016 50 0.0 0.0 0.00 0.00 0.00 85 1016.1
20260506132016 49 68 1.0 2.0 0.00 0.00 0.00 85 1015.9
20260506131015 48 68 1.0 2.0 0.00 0.00 0.00 84 1015.8
20260506130016 49 0.0 0.0 0.00 0.00 0.00 84 1015.8
20260506125015 49 180 1.0 2.0 0.00 0.00 0.00 82 1015.8
20260506124015 49 0.0 0.0 0.00 0.00 0.00 81 1015.8
20260506123036 49 23 2.0 4.0 0.00 0.01 0.00 81 1015.7
20260506122015 50 23 2.0 3.0 0.00 0.01 0.00 80 1015.5
20260506121056 50 23 2.0 3.0 0.00 0.01 0.00 79 1015.6
20260506120015 50 23 2.0 4.0 0.00 0.01 0.00 79 1015.5
20260506115015 50 23 2.0 3.0 0.00 0.01 0.00 79 1015.4
20260506114015 50 23 3.0 5.0 0.00 0.01 0.00 79 1015.3
20260506113015 50 23 3.0 4.0 0.00 0.01 0.00 79 1015.3
20260506112015 50 45 4.0 5.0 0.00 0.01 0.00 80 1015.2
20260506111016 50 45 3.0 4.0 0.00 0.02 0.00 79 1015.3
20260506110016 51 23 2.0 3.0 0.00 0.02 0.00 79 1015.3
20260506105015 51 68 3.0 4.0 0.00 0.03 0.00 79 1015.3
20260506104015 51 45 2.0 3.0 0.00 0.03 0.00 78 1015.3
20260506103016 51 68 1.0 2.0 0.00 0.03 0.00 78 1015.2
20260506102016 51 113 1.0 2.0 0.00 0.04 0.00 77 1015.0
20260506100015 52 0.0 3.0 0.00 0.05 0.00 77 1015.0
20260506095016 52 0.0 2.0 0.00 0.05 0.00 77 1014.9
20260506094015 52 135 3.0 5.0 0.00 0.05 0.00 76 1014.8
20260506093015 52 135 2.0 4.0 0.00 0.06 0.00 75 1014.8
20260506092016 53 135 2.0 4.0 0.00 0.07 0.00 74 1014.9
20260506091016 53 23 1.0 2.0 0.00 0.08 0.00 73 1014.6
20260506090015 53 23 2.0 3.0 0.00 0.09 0.00 72 1014.5
20260506085015 54 113 2.0 3.0 0.00 0.09 0.00 69 1014.5
20260506084035 54 135 2.0 4.0 0.00 0.10 0.00 67 1014.8
20260506083016 55 135 1.0 3.0 0.00 0.11 0.00 66 1014.7
20260506082016 56 0.0 0.0 0.00 0.12 0.00 66 1015.1
20260506081035 56 0.0 0.0 0.00 0.13 0.00 64 1015.1
20260506073017 57 158 3.0 7.0 0.00 0.16 0.00 60 1015.1
20260506072118 57 135 1.0 4.0 0.00 0.17 0.00 61 1015.1
20260506071017 58 135 1.0 3.0 0.00 0.18 0.00 58 1015.2
20260506062018 59 113 2.0 4.0 0.00 0.20 0.18 57 1014.6
20260506061017 59 113 1.0 3.0 0.00 0.21 0.18 56 1014.5
20260506051017 62 180 5.0 9.0 0.00 0.23 0.18 54 1014.1
20260506045017 62 203 4.0 6.0 0.00 0.23 0.18 53 1013.7
20260506044017 62 180 3.0 6.0 0.00 0.24 0.18 53 1013.6
20260506043017 62 203 2.0 5.0 0.00 0.24 0.18 51 1013.4
20260506042017 62 180 2.0 4.0 0.00 0.24 0.18 50 1013.2
20260506041017 62 180 1.0 2.0 0.00 0.24 0.18 52 1013.1
20260506040017 63 135 1.0 2.0 0.00 0.24 0.18 51 1013.0
20260506035017 64 0.0 2.0 0.00 0.24 0.18 47 1012.9
20260506034017 65 0.0 2.0 0.00 0.24 0.18 44 1012.8
20260506033017 65 0.0 2.0 0.00 0.24 0.18 42 1012.7
20260506032017 66 270 2.0 5.0 0.00 0.24 0.18 39 1012.7
20260506031018 66 248 2.0 5.0 0.00 0.25 0.18 38 1012.6
20260506030017 66 248 5.0 9.0 0.00 0.26 0.18 37 1012.4
20260506025037 67 270 3.0 6.0 0.00 0.27 0.18 36 1012.2
20260506024017 67 248 4.0 8.0 0.00 0.28 0.18 36 1012.1
20260506023017 67 270 5.0 9.0 0.00 0.29 0.18 36 1011.9
20260506022017 67 270 7.0 14.0 0.00 0.30 0.18 36 1011.7
20260506021017 68 270 8.0 15.0 0.00 0.30 0.18 36 1011.6
20260506020017 69 270 9.0 18.0 0.00 0.31 0.18 35 1011.6
20260506015017 70 270 8.0 15.0 0.00 0.33 0.18 35 1011.5
20260506014017 70 248 9.0 17.0 0.00 0.34 0.18 34 1011.3
20260506013017 71 270 9.0 15.0 0.00 0.34 0.18 33 1011.3
20260506012017 71 248 7.0 13.0 0.00 0.35 0.18 31 1011.3
20260506011017 72 225 10.0 18.0 0.00 0.35 0.18 30 1011.2
20260506010017 72 248 10.0 17.0 0.00 0.36 0.18 30 1011.1
20260506005017 71 225 10.0 18.0 0.00 0.37 0.18 31 1011.0
20260506004017 71 248 9.0 15.0 0.00 0.37 0.18 31 1011.0
20260506003017 72 248 10.0 21.0 0.00 0.38 0.18 32 1010.9
20260506002037 72 270 6.0 12.0 0.00 0.39 0.18 34 1010.9
20260506001017 71 225 7.0 13.0 0.00 0.41 0.18 34 1011.0
20260506000017 71 225 7.0 12.0 0.00 0.41 0.18 33 1010.7
20260505235017 72 225 7.0 14.0 0.00 0.41 0.18 31 1010.8
20260505234017 71 225 8.0 22.0 0.00 0.41 0.18 32 1010.5
20260505233017 72 225 11.0 20.0 0.00 0.41 0.18 31 1010.8
20260505232017 72 203 7.0 14.0 0.00 0.41 0.18 30 1010.7
20260505231017 72 225 11.0 19.0 0.00 0.41 0.18 29 1010.7
20260505230017 73 248 12.0 18.0 0.00 0.41 0.18 29 1010.8
20260505225017 75 225 13.0 21.0 0.00 0.41 0.18 29 1011.1
20260505224057 75 248 9.0 17.0 0.00 0.41 0.18 32 1011.1
20260505223017 74 270 11.0 20.0 0.00 0.41 0.18 34 1011.1
20260505222017 73 270 12.0 20.0 0.00 0.41 0.18 34 1011.1
20260505221017 74 270 15.0 26.0 0.00 0.41 0.18 33 1011.3
20260505220017 73 248 13.0 22.0 0.00 0.41 0.18 34 1011.3
20260505215037 73 248 12.0 24.0 0.00 0.41 0.18 35 1011.3
20260505214037 73 248 16.0 27.0 0.00 0.41 0.18 37 1011.5
20260505213017 74 248 15.0 25.0 0.00 0.41 0.18 38 1011.5
20260505212017 73 248 12.0 22.0 0.00 0.41 0.18 39 1011.4
20260505211017 72 248 11.0 20.0 0.00 0.41 0.18 42 1011.4
20260505210017 71 248 11.0 20.0 0.00 0.41 0.18 44 1011.6
20260505205037 70 270 5.0 12.0 0.00 0.41 0.18 47 1011.4
20260505204017 70 270 3.0 7.0 0.00 0.41 0.18 50 1011.5
20260505203017 70 270 6.0 11.0 0.00 0.41 0.18 53 1012.0
20260505202017 70 293 7.0 11.0 0.00 0.41 0.18 52 1012.0
20260505201017 70 270 7.0 12.0 0.00 0.41 0.18 51 1011.9
20260505200017 70 225 6.0 14.0 0.00 0.41 0.18 54 1012.0
20260505195017 70 225 7.0 12.0 0.00 0.41 0.18 51 1011.7
20260505194037 72 270 6.0 11.0 0.00 0.41 0.18 55 1012.1
20260505193037 71 293 6.0 10.0 0.00 0.41 0.18 56 1012.2
20260505192017 70 248 6.0 10.0 0.00 0.41 0.18 56 1012.2
20260505191017 70 270 8.0 14.0 0.00 0.41 0.18 56 1012.4
20260505190017 70 248 3.0 7.0 0.00 0.41 0.18 56 1012.4
20260505185017 70 270 8.0 13.0 0.00 0.41 0.18 55 1012.7
20260505184017 69 225 4.0 11.0 0.00 0.41 0.18 59 1012.7
20260505183017 68 315 2.0 5.0 0.00 0.41 0.18 59 1012.7
20260505182017 68 293 2.0 5.0 0.00 0.41 0.18 59 1012.9
20260505181017 68 315 2.0 5.0 0.00 0.41 0.18 62 1012.9
20260505180017 68 203 4.0 7.0 0.00 0.41 0.18 61 1013.2
20260505175017 68 248 3.0 8.0 0.00 0.41 0.18 66 1013.3
20260505174017 66 270 1.0 4.0 0.00 0.41 0.18 70 1013.0
20260505173016 65 180 3.0 6.0 0.00 0.41 0.18 70 1012.9
20260505172017 64 203 2.0 4.0 0.00 0.41 0.18 73 1012.9
20260505171017 63 248 1.0 3.0 0.00 0.41 0.18 76 1012.7
20260505170017 62 248 2.0 5.0 0.00 0.41 0.18 79 1012.6
20260505165017 61 248 1.0 3.0 0.00 0.41 0.18 83 1012.3
20260505164017 61 248 3.0 6.0 0.00 0.41 0.18 84 1012.5
20260505163017 60 225 3.0 6.0 0.00 0.41 0.18 88 1012.4
20260505162017 60 225 1.0 3.0 0.00 0.41 0.18 90 1012.5
20260505161016 60 225 1.0 2.0 0.00 0.41 0.18 90 1012.2
20260505153017 59 180 1.0 2.0 0.00 0.41 0.18 93 1011.9
20260505152016 59 0.0 0.0 0.00 0.41 0.18 93 1011.8
20260505151016 58 315 1.0 3.0 0.00 0.41 0.18 93 1011.7